Time,TemperatureF,DewpointF,PressureIn,WindDirection,WindDirectionDegrees,WindSpeedMPH,WindSpeedGustMPH,Humidity,HourlyPrecipIn,Conditions,Clouds,dailyrainin,SoftwareType,DateUTC
2014-02-28 00:01:00,-20.5,-26.2,30.15,SE,132,0.0,0.0,74,0.00,,SKC,0.00,VWS V14.01,2014-02-28 06:01:00,
2014-02-28 00:06:00,-20.3,-26.0,30.15,SE,132,0.0,0.0,74,0.00,,SKC,0.00,VWS V14.01,2014-02-28 06:06:00,
2014-02-28 00:11:00,-20.1,-25.8,30.15,SE,132,0.0,0.0,74,0.00,,SKC,0.00,VWS V14.01,2014-02-28 06:11:00,
2014-02-28 00:16:00,-19.8,-25.5,30.15,SE,132,0.0,0.0,74,0.00,,SKC,0.00,VWS V14.01,2014-02-28 06:16:00,
2014-02-28 00:21:00,-19.6,-25.3,30.15,SE,132,0.0,0.0,74,0.00,,SKC,0.00,VWS V14.01,2014-02-28 06:21:00,
2014-02-28 00:26:00,-19.2,-24.7,30.15,SE,132,0.0,0.0,75,0.00,,SKC,0.00,VWS V14.01,2014-02-28 06:26:00,
2014-02-28 00:31:00,-18.8,-24.3,30.15,SE,132,0.0,0.0,75,0.00,,SKC,0.00,VWS V14.01,2014-02-28 06:31:00,
2014-02-28 00:36:00,-18.5,-24.0,30.15,SE,132,0.0,0.0,75,0.00,,SKC,0.00,VWS V14.01,2014-02-28 06:36:00,
2014-02-28 00:41:00,-18.3,-23.8,30.14,SE,132,0.0,0.0,75,0.00,,SKC,0.00,VWS V14.01,2014-02-28 06:41:00,
2014-02-28 00:46:00,-17.9,-23.2,30.15,SE,132,0.0,0.0,76,0.00,,SKC,0.00,VWS V14.01,2014-02-28 06:46:00,
2014-02-28 00:51:00,-17.4,-19.7,30.15,SE,132,0.0,0.0,89,0.00,,SKC,0.00,VWS V14.01,2014-02-28 06:51:00,
2014-02-28 00:56:00,-17.0,-22.0,30.15,SE,132,0.0,0.0,77,0.00,,SKC,0.00,VWS V14.01,2014-02-28 06:56:00,
2014-02-28 01:01:00,-16.6,-21.6,30.15,SE,132,0.0,0.0,77,0.00,,SKC,0.00,VWS V14.01,2014-02-28 07:01:00,
2014-02-28 01:06:00,-16.3,-21.6,30.14,SE,132,0.0,0.0,76,0.00,,SKC,0.00,VWS V14.01,2014-02-28 07:06:00,
2014-02-28 01:11:00,-16.0,-21.3,30.14,SE,132,0.0,0.0,76,0.00,,SKC,0.00,VWS V14.01,2014-02-28 07:11:00,
2014-02-28 01:16:00,-15.3,-20.4,30.14,SE,132,0.0,0.0,77,0.00,,SKC,0.00,VWS V14.01,2014-02-28 07:16:00,
2014-02-28 01:21:00,-14.6,-19.7,30.14,SE,132,0.0,1.0,77,0.00,,SKC,0.00,VWS V14.01,2014-02-28 07:21:00,
2014-02-28 01:26:00,-13.3,-18.2,30.13,SE,132,0.0,2.0,78,0.00,,SKC,0.00,VWS V14.01,2014-02-28 07:26:00,
2014-02-28 01:31:00,-11.9,-17.3,30.13,SE,132,1.0,1.0,76,0.00,,SKC,0.00,VWS V14.01,2014-02-28 07:31:00,
2014-02-28 01:36:00,-10.8,-16.8,30.13,SE,132,0.0,4.0,74,0.00,,SKC,0.00,VWS V14.01,2014-02-28 07:36:00,
2014-02-28 01:41:00,-9.9,-16.4,30.13,SE,133,1.0,5.0,72,0.00,,SKC,0.00,VWS V14.01,2014-02-28 07:41:00,
2014-02-28 01:46:00,-9.3,-16.1,30.12,ESE,112,2.0,6.0,71,0.00,,SKC,0.00,VWS V14.01,2014-02-28 07:46:00,
2014-02-28 01:51:00,-8.9,-16.0,30.12,ESE,120,1.0,6.0,70,0.00,,SKC,0.00,VWS V14.01,2014-02-28 07:51:00,
2014-02-28 01:56:00,-8.6,-16.0,30.12,ESE,120,2.0,6.0,69,0.00,,SKC,0.00,VWS V14.01,2014-02-28 07:56:00,
2014-02-28 02:01:00,-8.3,-16.0,30.12,ESE,105,2.0,4.0,68,0.00,,SKC,0.00,VWS V14.01,2014-02-28 08:01:00,
2014-02-28 02:06:00,-8.1,-15.8,30.11,ESE,105,1.0,4.0,68,0.00,,SKC,0.00,VWS V14.01,2014-02-28 08:06:00,
2014-02-28 02:11:00,-7.9,-15.6,30.11,ESE,105,0.0,5.0,68,0.00,,SKC,0.00,VWS V14.01,2014-02-28 08:11:00,
2014-02-28 02:16:00,-7.7,-15.7,30.11,ESE,105,1.0,5.0,67,0.00,,SKC,0.00,VWS V14.01,2014-02-28 08:16:00,
2014-02-28 02:21:00,-7.5,-15.5,30.11,East,82,2.0,5.0,67,0.00,,SKC,0.00,VWS V14.01,2014-02-28 08:21:00,
2014-02-28 02:26:00,-7.3,-15.3,30.11,ESE,103,2.0,5.0,67,0.00,,SKC,0.00,VWS V14.01,2014-02-28 08:26:00,
2014-02-28 02:31:00,-7.1,-15.1,30.10,ESE,118,6.0,7.0,67,0.00,,SKC,0.00,VWS V14.01,2014-02-28 08:31:00,
2014-02-28 02:36:00,-6.8,-15.2,30.10,ESE,120,2.0,7.0,66,0.00,,SKC,0.00,VWS V14.01,2014-02-28 08:36:00,
2014-02-28 02:41:00,-6.7,-15.1,30.10,ESE,120,4.0,7.0,66,0.00,,SKC,0.00,VWS V14.01,2014-02-28 08:41:00,
2014-02-28 02:46:00,-6.6,-15.0,30.10,ESE,119,4.0,7.0,66,0.00,,SKC,0.00,VWS V14.01,2014-02-28 08:46:00,
2014-02-28 02:51:00,-6.6,-15.0,30.10,ESE,109,0.0,7.0,66,0.00,,SKC,0.00,VWS V14.01,2014-02-28 08:51:00,
2014-02-28 02:56:00,-6.6,-15.0,30.09,ESE,112,5.0,7.0,66,0.00,,SKC,0.00,VWS V14.01,2014-02-28 08:56:00,
2014-02-28 03:01:00,-6.6,-15.0,30.09,ESE,110,4.0,9.0,66,0.00,,SKC,0.00,VWS V14.01,2014-02-28 09:01:00,
2014-02-28 03:06:00,-6.6,-15.0,30.09,SE,126,1.0,9.0,66,0.00,,SKC,0.00,VWS V14.01,2014-02-28 09:06:00,
2014-02-28 03:11:00,-6.6,-15.0,30.09,ESE,123,4.0,9.0,66,0.00,,SKC,0.00,VWS V14.01,2014-02-28 09:11:00,
2014-02-28 03:16:00,-6.6,-15.0,30.08,ESE,121,2.0,9.0,66,0.00,,SKC,0.00,VWS V14.01,2014-02-28 09:16:00,
2014-02-28 03:21:00,-6.7,-15.1,30.08,ESE,118,2.0,9.0,66,0.00,,SKC,0.00,VWS V14.01,2014-02-28 09:21:00,
2014-02-28 03:26:00,-6.7,-15.1,30.08,SE,130,1.0,9.0,66,0.00,,SKC,0.00,VWS V14.01,2014-02-28 09:26:00,
2014-02-28 03:31:00,-6.7,-15.1,30.08,ESE,119,2.0,7.0,66,0.00,,SKC,0.00,VWS V14.01,2014-02-28 09:31:00,
2014-02-28 03:36:00,-6.8,-15.2,30.07,East,100,1.0,7.0,66,0.00,,SKC,0.00,VWS V14.01,2014-02-28 09:36:00,
2014-02-28 03:41:00,-6.8,-15.2,30.07,ESE,104,4.0,7.0,66,0.00,,SKC,0.00,VWS V14.01,2014-02-28 09:41:00,
2014-02-28 03:46:00,-6.9,-15.6,30.07,ESE,117,4.0,7.0,65,0.00,,SKC,0.00,VWS V14.01,2014-02-28 09:46:00,
2014-02-28 03:51:00,-7.0,-15.6,30.07,ESE,115,0.0,7.0,65,0.00,,SKC,0.00,VWS V14.01,2014-02-28 09:51:00,
2014-02-28 03:56:00,-7.1,-15.8,30.07,ESE,115,2.0,7.0,65,0.00,,SKC,0.00,VWS V14.01,2014-02-28 09:56:00,
2014-02-28 04:01:00,-7.2,-15.8,30.07,ESE,115,0.0,1.0,65,0.00,,SKC,0.00,VWS V14.01,2014-02-28 10:01:00,
2014-02-28 04:06:00,-7.3,-15.9,30.07,ESE,115,0.0,2.0,65,0.00,,SKC,0.00,VWS V14.01,2014-02-28 10:06:00,
2014-02-28 04:11:00,-7.5,-16.1,30.07,ESE,115,0.0,2.0,65,0.00,,SKC,0.00,VWS V14.01,2014-02-28 10:11:00,
2014-02-28 04:16:00,-7.6,-16.2,30.06,ESE,115,0.0,2.0,65,0.00,,SKC,0.00,VWS V14.01,2014-02-28 10:16:00,
2014-02-28 04:21:00,-7.7,-16.0,30.06,ESE,115,0.0,2.0,66,0.00,,SKC,0.00,VWS V14.01,2014-02-28 10:21:00,
2014-02-28 04:26:00,-7.7,-16.0,30.07,ESE,115,0.0,4.0,66,0.00,,SKC,0.00,VWS V14.01,2014-02-28 10:26:00,
2014-02-28 04:31:00,-7.7,-16.0,30.06,ESE,115,0.0,2.0,66,0.00,,SKC,0.00,VWS V14.01,2014-02-28 10:31:00,
2014-02-28 04:36:00,-7.8,-16.4,30.06,ESE,115,0.0,2.0,65,0.00,,SKC,0.00,VWS V14.01,2014-02-28 10:36:00,
2014-02-28 04:41:00,-7.9,-16.5,30.05,ESE,115,0.0,2.0,65,0.00,,SKC,0.00,VWS V14.01,2014-02-28 10:41:00,
2014-02-28 04:46:00,-8.0,-16.6,30.05,ESE,115,2.0,4.0,65,0.00,,SKC,0.00,VWS V14.01,2014-02-28 10:46:00,
2014-02-28 04:51:00,-8.0,-16.3,30.05,ESE,103,0.0,5.0,66,0.00,,SKC,0.00,VWS V14.01,2014-02-28 10:51:00,
2014-02-28 04:56:00,-7.9,-16.5,30.05,ESE,103,1.0,5.0,65,0.00,,SKC,0.00,VWS V14.01,2014-02-28 10:56:00,
2014-02-28 05:01:00,-7.9,-16.2,30.06,ESE,103,1.0,2.0,66,0.00,,SKC,0.00,VWS V14.01,2014-02-28 11:01:00,
2014-02-28 05:06:00,-8.0,-16.3,30.05,ESE,105,2.0,5.0,66,0.00,,SKC,0.00,VWS V14.01,2014-02-28 11:06:00,
2014-02-28 05:11:00,-8.0,-16.3,30.05,ESE,105,2.0,5.0,66,0.00,,SKC,0.00,VWS V14.01,2014-02-28 11:11:00,
2014-02-28 05:16:00,-7.9,-16.2,30.05,ESE,105,4.0,5.0,66,0.00,,SKC,0.00,VWS V14.01,2014-02-28 11:16:00,
2014-02-28 05:21:00,-8.0,-16.6,30.05,ESE,105,1.0,5.0,65,0.00,,SKC,0.00,VWS V14.01,2014-02-28 11:21:00,
2014-02-28 05:26:00,-8.0,-16.6,30.05,ESE,105,0.0,5.0,65,0.00,,SKC,0.00,VWS V14.01,2014-02-28 11:26:00,
2014-02-28 05:31:00,-8.1,-16.4,30.05,ESE,105,2.0,4.0,66,0.00,,SKC,0.00,VWS V14.01,2014-02-28 11:31:00,
2014-02-28 05:36:00,-8.2,-16.5,30.05,ESE,105,0.0,4.0,66,0.00,,SKC,0.00,VWS V14.01,2014-02-28 11:36:00,
2014-02-28 05:41:00,-8.3,-16.6,30.04,ESE,105,1.0,4.0,66,0.00,,SKC,0.00,VWS V14.01,2014-02-28 11:41:00,
2014-02-28 05:46:00,-8.3,-16.6,30.04,ESE,106,1.0,4.0,66,0.00,,SKC,0.00,VWS V14.01,2014-02-28 11:46:00,
2014-02-28 05:51:00,-8.4,-16.7,30.04,ESE,107,1.0,4.0,66,0.00,,SKC,0.00,VWS V14.01,2014-02-28 11:51:00,
2014-02-28 05:56:00,-8.4,-16.7,30.04,ESE,107,2.0,5.0,66,0.00,,SKC,0.00,VWS V14.01,2014-02-28 11:56:00,
2014-02-28 06:01:00,-8.4,-16.4,30.04,ESE,103,0.0,4.0,67,0.00,,SKC,0.00,VWS V14.01,2014-02-28 12:01:00,
2014-02-28 06:06:00,-8.4,-16.7,30.04,ESE,123,2.0,6.0,66,0.00,,SKC,0.00,VWS V14.01,2014-02-28 12:06:00,
2014-02-28 06:11:00,-8.3,-16.6,30.04,East,90,2.0,6.0,66,0.00,,SKC,0.00,VWS V14.01,2014-02-28 12:11:00,
2014-02-28 06:16:00,-8.4,-16.7,30.05,East,90,0.0,6.0,66,0.00,,SKC,0.00,VWS V14.01,2014-02-28 12:16:00,
2014-02-28 06:21:00,-8.4,-16.7,30.04,East,90,2.0,6.0,66,0.00,,SKC,0.00,VWS V14.01,2014-02-28 12:21:00,
2014-02-28 06:26:00,-8.5,-16.5,30.04,East,91,2.0,6.0,67,0.00,,SKC,0.00,VWS V14.01,2014-02-28 12:26:00,
2014-02-28 06:31:00,-8.7,-16.7,30.04,East,91,1.0,2.0,67,0.00,,SKC,0.00,VWS V14.01,2014-02-28 12:31:00,
2014-02-28 06:36:00,-8.8,-16.8,30.04,East,91,0.0,2.0,67,0.00,,SKC,0.00,VWS V14.01,2014-02-28 12:36:00,
2014-02-28 06:41:00,-8.7,-16.4,30.04,East,91,0.0,4.0,68,0.00,,SKC,0.00,VWS V14.01,2014-02-28 12:41:00,
2014-02-28 06:46:00,-8.4,-16.1,30.04,East,91,2.0,4.0,68,0.00,,SKC,0.00,VWS V14.01,2014-02-28 12:46:00,
2014-02-28 06:51:00,-8.1,-15.8,30.04,East,100,4.0,5.0,68,0.00,,SKC,0.00,VWS V14.01,2014-02-28 12:51:00,
2014-02-28 06:56:00,-7.8,-15.5,30.03,ESE,110,2.0,8.0,68,0.00,,SKC,0.00,VWS V14.01,2014-02-28 12:56:00,
2014-02-28 07:01:00,-7.6,-15.3,30.03,East,97,4.0,5.0,68,0.00,,SKC,0.00,VWS V14.01,2014-02-28 13:01:00,
2014-02-28 07:06:00,-7.3,-15.1,30.03,ESE,103,5.0,7.0,68,0.00,,SKC,0.00,VWS V14.01,2014-02-28 13:06:00,
2014-02-28 07:11:00,-7.2,-15.2,30.03,ESE,113,5.0,7.0,67,0.00,,SKC,0.00,VWS V14.01,2014-02-28 13:11:00,
2014-02-28 07:16:00,-6.9,-15.0,30.03,ESE,103,2.0,7.0,67,0.00,,SKC,0.00,VWS V14.01,2014-02-28 13:16:00,
2014-02-28 07:21:00,-6.8,-14.9,30.03,ESE,105,2.0,7.0,67,0.00,,SKC,0.00,VWS V14.01,2014-02-28 13:21:00,
2014-02-28 07:26:00,-6.6,-14.7,30.03,East,101,0.0,7.0,67,0.00,,SKC,0.00,VWS V14.01,2014-02-28 13:26:00,
2014-02-28 07:31:00,-6.4,-14.5,30.03,ESE,111,4.0,7.0,67,0.00,,SKC,0.00,VWS V14.01,2014-02-28 13:31:00,
2014-02-28 07:36:00,-6.2,-14.6,30.02,ENE,64,3.0,8.0,66,0.00,,SKC,0.00,VWS V14.01,2014-02-28 13:36:00,
2014-02-28 07:41:00,-6.0,-14.4,30.02,ESE,118,2.0,8.0,66,0.00,,SKC,0.00,VWS V14.01,2014-02-28 13:41:00,
2014-02-28 07:46:00,-5.9,-14.3,30.02,ESE,115,2.0,8.0,66,0.00,,SKC,0.00,VWS V14.01,2014-02-28 13:46:00,
2014-02-28 07:51:00,-5.7,-14.1,30.02,East,91,5.0,9.0,66,0.00,,SKC,0.00,VWS V14.01,2014-02-28 13:51:00,
2014-02-28 07:56:00,-5.6,-14.0,30.02,SSE,165,5.0,9.0,66,0.00,,SKC,0.00,VWS V14.01,2014-02-28 13:56:00,
2014-02-28 08:01:00,-5.4,-14.1,30.02,ESE,109,2.0,7.0,65,0.00,,SKC,0.00,VWS V14.01,2014-02-28 14:01:00,
2014-02-28 08:06:00,-5.3,-14.0,30.02,East,94,4.0,7.0,65,0.00,,SKC,0.00,VWS V14.01,2014-02-28 14:06:00,
2014-02-28 08:11:00,-5.2,-13.9,30.02,East,92,2.0,7.0,65,0.00,,SKC,0.00,VWS V14.01,2014-02-28 14:11:00,
2014-02-28 08:16:00,-5.0,-13.7,30.03,ESE,103,1.0,7.0,65,0.00,,SKC,0.00,VWS V14.01,2014-02-28 14:16:00,
2014-02-28 08:21:00,-4.8,-13.6,30.02,ESE,119,6.0,7.0,65,0.00,,SKC,0.00,VWS V14.01,2014-02-28 14:21:00,
2014-02-28 08:26:00,-4.6,-13.4,30.02,ESE,115,2.0,9.0,65,0.00,,SKC,0.00,VWS V14.01,2014-02-28 14:26:00,
2014-02-28 08:31:00,-4.3,-13.1,30.02,ESE,105,5.0,7.0,65,0.00,,SKC,0.00,VWS V14.01,2014-02-28 14:31:00,
2014-02-28 08:36:00,-4.0,-12.8,30.01,East,95,8.0,11.0,65,0.00,,SKC,0.00,VWS V14.01,2014-02-28 14:36:00,
2014-02-28 08:41:00,-3.7,-12.8,30.01,ESE,103,5.0,11.0,64,0.00,,SKC,0.00,VWS V14.01,2014-02-28 14:41:00,
2014-02-28 08:46:00,-3.4,-12.5,30.01,SE,128,4.0,11.0,64,0.00,,SKC,0.00,VWS V14.01,2014-02-28 14:46:00,
2014-02-28 08:51:00,-3.1,-12.2,30.01,SE,126,2.0,11.0,64,0.00,,SKC,0.00,VWS V14.01,2014-02-28 14:51:00,
2014-02-28 08:56:00,-2.7,-12.2,30.01,SE,140,4.0,11.0,63,0.00,,SKC,0.00,VWS V14.01,2014-02-28 14:56:00,
2014-02-28 09:01:00,-2.3,-11.8,30.01,SE,127,7.0,11.0,63,0.00,,SKC,0.00,VWS V14.01,2014-02-28 15:01:00,
2014-02-28 09:06:00,-1.9,-11.4,30.01,East,85,7.0,11.0,63,0.00,,SKC,0.00,VWS V14.01,2014-02-28 15:06:00,
2014-02-28 09:11:00,-1.7,-11.5,30.00,SE,127,4.0,11.0,62,0.00,,SKC,0.00,VWS V14.01,2014-02-28 15:11:00,
2014-02-28 09:15:00,-1.4,-11.2,30.00,SE,128,4.0,11.0,62,0.00,,SKC,0.00,VWS V14.01,2014-02-28 15:15:00,
2014-02-28 09:20:00,-1.1,-11.0,30.01,SE,128,5.0,12.0,62,0.00,,SKC,0.00,VWS V14.01,2014-02-28 15:20:00,
2014-02-28 09:25:00,-0.9,-10.8,30.01,ESE,107,0.0,12.0,62,0.00,,SKC,0.00,VWS V14.01,2014-02-28 15:25:00,
2014-02-28 09:30:00,-0.5,-10.4,30.01,ESE,103,4.0,7.0,62,0.00,,SKC,0.00,VWS V14.01,2014-02-28 15:30:00,
2014-02-28 09:35:00,-0.3,-10.2,30.01,ESE,102,0.0,8.0,62,0.00,,SKC,0.00,VWS V14.01,2014-02-28 15:35:00,
2014-02-28 09:40:00,-0.1,-9.9,30.01,ESE,111,6.0,8.0,62,0.00,,SKC,0.00,VWS V14.01,2014-02-28 15:40:00,
2014-02-28 09:45:00,0.1,-10.1,30.01,ESE,115,4.0,9.0,61,0.00,,SKC,0.00,VWS V14.01,2014-02-28 15:45:00,
2014-02-28 09:50:00,0.3,-9.6,30.00,East,101,5.0,9.0,62,0.00,,SKC,0.00,VWS V14.01,2014-02-28 15:50:00,
2014-02-28 09:55:00,0.4,-9.9,30.00,ESE,110,7.0,12.0,61,0.00,,SKC,0.00,VWS V14.01,2014-02-28 15:55:00,
2014-02-28 10:00:00,0.6,-9.7,30.00,ESE,121,5.0,8.0,61,0.00,,SKC,0.00,VWS V14.01,2014-02-28 16:00:00,
2014-02-28 10:05:00,0.9,-9.4,29.99,ESE,120,0.0,12.0,61,0.00,,SKC,0.00,VWS V14.01,2014-02-28 16:05:00,
2014-02-28 10:10:00,1.1,-8.9,29.99,ESE,117,5.0,12.0,62,0.00,,SKC,0.00,VWS V14.01,2014-02-28 16:10:00,
2014-02-28 10:15:00,1.4,-8.9,29.98,SE,126,2.0,12.0,61,0.00,,SKC,0.00,VWS V14.01,2014-02-28 16:15:00,
2014-02-28 10:20:00,1.5,-8.8,29.98,ESE,112,5.0,12.0,61,0.00,,SKC,0.00,VWS V14.01,2014-02-28 16:20:00,
2014-02-28 10:25:00,2.0,-8.0,29.98,SE,124,1.0,12.0,62,0.00,,SKC,0.00,VWS V14.01,2014-02-28 16:25:00,
2014-02-28 10:30:00,2.4,-8.0,29.98,SE,139,0.0,5.0,61,0.00,,SKC,0.00,VWS V14.01,2014-02-28 16:30:00,
2014-02-28 10:35:00,2.8,-7.6,29.98,East,88,7.0,9.0,61,0.00,,SKC,0.00,VWS V14.01,2014-02-28 16:35:00,
2014-02-28 10:40:00,3.1,-7.0,29.98,ESE,108,0.0,9.0,62,0.00,,SKC,0.00,VWS V14.01,2014-02-28 16:40:00,
2014-02-28 10:45:00,3.8,-6.3,29.98,SE,132,6.0,9.0,62,0.00,,SKC,0.00,VWS V14.01,2014-02-28 16:45:00,
2014-02-28 10:50:00,4.2,-6.6,29.98,SE,126,0.0,9.0,60,0.00,,SKC,0.00,VWS V14.01,2014-02-28 16:50:00,
2014-02-28 10:55:00,4.6,-6.2,29.98,SSE,159,5.0,9.0,60,0.00,,SKC,0.00,VWS V14.01,2014-02-28 16:55:00,
2014-02-28 11:00:00,5.1,-5.7,29.98,ESE,123,4.0,5.0,60,0.00,,SKC,0.00,VWS V14.01,2014-02-28 17:00:00,
2014-02-28 11:05:00,5.6,-5.6,29.98,ESE,116,6.0,10.0,59,0.00,,SKC,0.00,VWS V14.01,2014-02-28 17:05:00,
2014-02-28 11:10:00,5.9,-5.3,29.99,SE,144,2.0,11.0,59,0.00,,SKC,0.00,VWS V14.01,2014-02-28 17:10:00,
2014-02-28 11:15:00,6.0,-5.6,29.98,SE,134,1.0,11.0,58,0.00,,SKC,0.00,VWS V14.01,2014-02-28 17:15:00,
2014-02-28 11:20:00,6.2,-5.4,29.99,ESE,114,1.0,11.0,58,0.00,,SKC,0.00,VWS V14.01,2014-02-28 17:20:00,
2014-02-28 11:25:00,6.4,-5.2,29.98,ESE,116,0.0,11.0,58,0.00,,SKC,0.00,VWS V14.01,2014-02-28 17:25:00,
2014-02-28 11:30:00,6.7,-4.9,29.98,SE,134,4.0,7.0,58,0.00,,SKC,0.00,VWS V14.01,2014-02-28 17:30:00,
2014-02-28 11:35:00,6.9,-4.7,29.98,East,87,3.0,7.0,58,0.00,,SKC,0.00,VWS V14.01,2014-02-28 17:35:00,
2014-02-28 11:40:00,7.0,-4.7,29.98,ESE,116,2.0,8.0,58,0.00,,SKC,0.00,VWS V14.01,2014-02-28 17:40:00,
2014-02-28 11:45:00,7.2,-4.5,29.98,SSE,156,2.0,8.0,58,0.00,,SKC,0.00,VWS V14.01,2014-02-28 17:45:00,
2014-02-28 11:50:00,7.6,-4.1,29.98,ESE,117,4.0,8.0,58,0.00,,SKC,0.00,VWS V14.01,2014-02-28 17:50:00,
2014-02-28 11:55:00,7.7,-4.0,29.98,SE,144,1.0,8.0,58,0.00,,SKC,0.00,VWS V14.01,2014-02-28 17:55:00,
2014-02-28 12:00:00,8.0,-4.1,29.97,ESE,104,6.0,8.0,57,0.00,,SKC,0.00,VWS V14.01,2014-02-28 18:00:00,
2014-02-28 12:05:00,8.6,-3.1,29.97,SE,126,0.0,8.0,58,0.00,,SKC,0.00,VWS V14.01,2014-02-28 18:05:00,
2014-02-28 12:10:00,9.0,-3.1,29.97,SE,135,1.0,11.0,57,0.00,,SKC,0.00,VWS V14.01,2014-02-28 18:10:00,
2014-02-28 12:15:00,9.3,-2.8,29.97,SSE,162,2.0,11.0,57,0.00,,SKC,0.00,VWS V14.01,2014-02-28 18:15:00,
2014-02-28 12:20:00,9.5,-2.7,29.97,South,184,0.0,11.0,57,0.00,,SKC,0.00,VWS V14.01,2014-02-28 18:20:00,
2014-02-28 12:25:00,10.0,-2.2,29.97,SE,128,7.0,11.0,57,0.00,,SKC,0.00,VWS V14.01,2014-02-28 18:25:00,
2014-02-28 12:30:00,10.4,-2.2,29.97,NNW,329,4.0,6.0,56,0.00,,SKC,0.00,VWS V14.01,2014-02-28 18:30:00,
2014-02-28 12:35:00,10.8,-1.8,29.97,SW,218,2.0,6.0,56,0.00,,SKC,0.00,VWS V14.01,2014-02-28 18:35:00,
2014-02-28 12:40:00,10.8,-2.2,29.97,SSE,149,2.0,8.0,55,0.00,,SKC,0.00,VWS V14.01,2014-02-28 18:40:00,
2014-02-28 12:45:00,10.8,-1.8,29.97,SW,224,5.0,8.0,56,0.00,,SKC,0.00,VWS V14.01,2014-02-28 18:45:00,
2014-02-28 12:50:00,10.8,-1.8,29.96,SE,138,4.0,8.0,56,0.00,,SKC,0.00,VWS V14.01,2014-02-28 18:50:00,
2014-02-28 12:55:00,10.9,-1.3,29.96,East,86,2.0,8.0,57,0.00,,SKC,0.00,VWS V14.01,2014-02-28 18:55:00,
2014-02-28 13:00:00,11.2,-1.0,29.97,ESE,117,5.0,9.0,57,0.00,,SKC,0.00,VWS V14.01,2014-02-28 19:00:00,
2014-02-28 13:05:00,11.5,-0.8,29.96,ESE,121,1.0,9.0,57,0.00,,SKC,0.00,VWS V14.01,2014-02-28 19:05:00,
2014-02-28 13:10:00,11.7,-0.6,29.96,SSE,155,0.0,9.0,57,0.00,,SKC,0.00,VWS V14.01,2014-02-28 19:10:00,
2014-02-28 13:15:00,12.1,-0.2,29.96,SW,234,0.0,9.0,57,0.00,,SKC,0.00,VWS V14.01,2014-02-28 19:15:00,
2014-02-28 13:20:00,12.7,0.4,29.97,ESE,106,6.0,9.0,57,0.00,,SKC,0.00,VWS V14.01,2014-02-28 19:20:00,
2014-02-28 13:25:00,12.9,0.2,29.97,South,169,5.0,9.0,56,0.00,,SKC,0.00,VWS V14.01,2014-02-28 19:25:00,
2014-02-28 13:30:00,12.9,0.2,29.97,SE,127,7.0,8.0,56,0.00,,SKC,0.00,VWS V14.01,2014-02-28 19:30:00,
2014-02-28 13:35:00,12.8,0.1,29.97,ESE,120,5.0,8.0,56,0.00,,SKC,0.00,VWS V14.01,2014-02-28 19:35:00,
2014-02-28 13:40:00,12.6,-0.1,29.97,East,80,1.0,8.0,56,0.00,,SKC,0.00,VWS V14.01,2014-02-28 19:40:00,
2014-02-28 13:45:00,12.7,0.4,29.97,NW,321,0.0,9.0,57,0.00,,SKC,0.00,VWS V14.01,2014-02-28 19:45:00,
2014-02-28 13:50:00,13.1,1.1,29.96,ESE,109,0.0,9.0,58,0.00,,SKC,0.00,VWS V14.01,2014-02-28 19:50:00,
2014-02-28 13:55:00,13.5,1.1,29.96,SE,128,9.0,9.0,57,0.00,,SKC,0.00,VWS V14.01,2014-02-28 19:55:00,
2014-02-28 14:00:00,13.5,1.5,29.96,SE,131,0.0,5.0,58,0.00,,SKC,0.00,VWS V14.01,2014-02-28 20:00:00,
2014-02-28 14:05:00,13.4,1.0,29.96,NNE,14,1.0,6.0,57,0.00,,SKC,0.00,VWS V14.01,2014-02-28 20:05:00,
2014-02-28 14:10:00,13.4,1.4,29.96,SSW,193,0.0,6.0,58,0.00,,SKC,0.00,VWS V14.01,2014-02-28 20:10:00,
2014-02-28 14:15:00,13.6,1.6,29.96,SW,232,0.0,6.0,58,0.00,,SKC,0.00,VWS V14.01,2014-02-28 20:15:00,
2014-02-28 14:20:00,13.8,1.8,29.96,SSW,202,0.0,6.0,58,0.00,,SKC,0.00,VWS V14.01,2014-02-28 20:20:00,
2014-02-28 14:25:00,14.1,2.4,29.96,SSW,207,0.0,6.0,59,0.00,,SKC,0.00,VWS V14.01,2014-02-28 20:25:00,
2014-02-28 14:30:00,14.3,2.2,29.97,WSW,256,4.0,6.0,58,0.00,,SKC,0.00,VWS V14.01,2014-02-28 20:30:00,
2014-02-28 14:35:00,14.2,2.5,29.97,West,259,3.0,6.0,59,0.00,,SKC,0.00,VWS V14.01,2014-02-28 20:35:00,
2014-02-28 14:40:00,14.1,2.8,29.97,WSW,247,1.0,6.0,60,0.00,,SKC,0.00,VWS V14.01,2014-02-28 20:40:00,
2014-02-28 14:45:00,13.7,2.0,29.97,NW,312,2.0,9.0,59,0.00,,SKC,0.00,VWS V14.01,2014-02-28 20:45:00,
2014-02-28 14:50:00,13.5,2.6,29.98,WNW,285,2.0,9.0,61,0.00,,SKC,0.00,VWS V14.01,2014-02-28 20:50:00,
2014-02-28 14:55:00,13.4,2.8,29.98,SSE,163,0.0,9.0,62,0.00,,SKC,0.00,VWS V14.01,2014-02-28 20:55:00,
2014-02-28 15:00:00,13.5,2.9,29.98,WSW,246,4.0,10.0,62,0.00,,SKC,0.00,VWS V14.01,2014-02-28 21:00:00,
2014-02-28 15:05:00,13.5,2.9,29.98,SE,140,0.0,10.0,62,0.00,,SKC,0.00,VWS V14.01,2014-02-28 21:05:00,
2014-02-28 15:10:00,13.4,2.8,29.98,West,262,1.0,10.0,62,0.00,,SKC,0.00,VWS V14.01,2014-02-28 21:10:00,
2014-02-28 15:15:00,13.4,2.8,29.98,SW,232,0.0,10.0,62,0.00,,SKC,0.00,VWS V14.01,2014-02-28 21:15:00,
2014-02-28 15:20:00,13.4,2.8,29.98,West,271,0.0,10.0,62,0.00,,SKC,0.00,VWS V14.01,2014-02-28 21:20:00,
2014-02-28 15:25:00,13.4,2.8,29.98,West,271,4.0,10.0,62,0.00,,SKC,0.00,VWS V14.01,2014-02-28 21:25:00,
2014-02-28 15:30:00,13.4,3.2,29.98,WNW,287,0.0,7.0,63,0.00,,SKC,0.00,VWS V14.01,2014-02-28 21:30:00,
2014-02-28 15:35:00,13.4,3.2,29.99,WNW,298,0.0,8.0,63,0.00,,SKC,0.00,VWS V14.01,2014-02-28 21:35:00,
2014-02-28 15:40:00,13.2,3.0,29.99,SW,226,2.0,8.0,63,0.00,,SKC,0.00,VWS V14.01,2014-02-28 21:40:00,
2014-02-28 15:45:00,13.1,2.9,29.99,SW,227,1.0,8.0,63,0.00,,SKC,0.00,VWS V14.01,2014-02-28 21:45:00,
2014-02-28 15:50:00,13.2,3.3,29.99,SW,234,0.0,8.0,64,0.00,,SKC,0.00,VWS V14.01,2014-02-28 21:50:00,
2014-02-28 15:55:00,13.2,3.0,30.00,WSW,248,1.0,8.0,63,0.00,,SKC,0.00,VWS V14.01,2014-02-28 21:55:00,
2014-02-28 16:00:00,13.1,2.9,30.00,West,261,2.0,5.0,63,0.00,,SKC,0.00,VWS V14.01,2014-02-28 22:00:00,
2014-02-28 16:05:00,13.0,3.1,30.00,West,265,3.0,5.0,64,0.00,,SKC,0.00,VWS V14.01,2014-02-28 22:05:00,
2014-02-28 16:10:00,12.9,2.7,30.00,NW,311,0.0,7.0,63,0.00,,SKC,0.00,VWS V14.01,2014-02-28 22:10:00,
2014-02-28 16:15:00,12.9,3.0,30.00,NW,306,0.0,7.0,64,0.00,,SKC,0.00,VWS V14.01,2014-02-28 22:15:00,
2014-02-28 16:20:00,12.9,3.0,30.00,WSW,252,2.0,7.0,64,0.00,,SKC,0.00,VWS V14.01,2014-02-28 22:20:00,
2014-02-28 16:25:00,12.7,2.8,30.01,NW,313,4.0,11.0,64,0.00,,SKC,0.00,VWS V14.01,2014-02-28 22:25:00,
2014-02-28 16:30:00,12.6,2.8,30.01,WSW,250,3.0,4.0,64,0.00,,SKC,0.00,VWS V14.01,2014-02-28 22:30:00,
2014-02-28 16:35:00,12.5,3.0,30.01,WSW,249,2.0,8.0,65,0.00,,SKC,0.00,VWS V14.01,2014-02-28 22:35:00,
2014-02-28 16:40:00,12.4,3.2,30.01,WNW,294,0.0,8.0,66,0.00,,SKC,0.00,VWS V14.01,2014-02-28 22:40:00,
2014-02-28 16:45:00,12.4,3.2,30.02,WSW,251,0.0,8.0,66,0.00,,SKC,0.00,VWS V14.01,2014-02-28 22:45:00,
2014-02-28 16:50:00,12.3,3.5,30.02,NW,319,0.0,8.0,67,0.00,,SKC,0.00,VWS V14.01,2014-02-28 22:50:00,
2014-02-28 16:55:00,12.3,3.5,30.02,WSW,253,0.0,8.0,67,0.00,,SKC,0.00,VWS V14.01,2014-02-28 22:55:00,
2014-02-28 17:00:00,12.3,3.5,30.03,WSW,248,5.0,5.0,67,0.00,,SKC,0.00,VWS V14.01,2014-02-28 23:00:00,
2014-02-28 17:05:00,12.2,3.3,30.03,West,261,0.0,6.0,67,0.00,,SKC,0.00,VWS V14.01,2014-02-28 23:05:00,
2014-02-28 17:10:00,12.1,3.6,30.03,West,269,0.0,6.0,68,0.00,,SKC,0.00,VWS V14.01,2014-02-28 23:10:00,
2014-02-28 17:15:00,12.1,3.6,30.03,NW,304,0.0,6.0,68,0.00,,SKC,0.00,VWS V14.01,2014-02-28 23:15:00,
2014-02-28 17:20:00,12.1,3.6,30.03,WNW,302,0.0,6.0,68,0.00,,SKC,0.00,VWS V14.01,2014-02-28 23:20:00,
2014-02-28 17:25:00,12.0,3.5,30.04,WSW,257,0.0,6.0,68,0.00,,SKC,0.00,VWS V14.01,2014-02-28 23:25:00,
2014-02-28 17:30:00,11.9,3.4,30.03,WSW,257,0.0,2.0,68,0.00,,SKC,0.00,VWS V14.01,2014-02-28 23:30:00,
2014-02-28 17:34:00,11.9,3.4,30.04,WSW,257,0.0,2.0,68,0.00,,SKC,0.00,VWS V14.01,2014-02-28 23:34:00,
2014-02-28 17:39:00,11.8,3.6,30.04,WSW,248,0.0,4.0,69,0.00,,SKC,0.00,VWS V14.01,2014-02-28 23:39:00,
2014-02-28 17:44:00,11.7,3.5,30.04,WNW,290,0.0,4.0,69,0.00,,SKC,0.00,VWS V14.01,2014-02-28 23:44:00,
2014-02-28 17:49:00,11.5,3.3,30.04,West,265,2.0,5.0,69,0.00,,SKC,0.00,VWS V14.01,2014-02-28 23:49:00,
2014-02-28 17:54:00,11.3,3.1,30.05,WSW,250,1.0,6.0,69,0.00,,SKC,0.00,VWS V14.01,2014-02-28 23:54:00,
2014-02-28 17:59:00,11.1,2.9,30.05,WNW,288,0.0,0.0,69,0.00,,SKC,0.00,VWS V14.01,2014-02-28 23:59:00,
2014-02-28 18:04:00,10.8,3.0,30.05,WNW,288,0.0,1.0,70,0.00,,SKC,0.00,VWS V14.01,2014-03-01 00:04:00,
2014-02-28 18:09:00,10.6,2.8,30.06,WNW,292,1.0,2.0,70,0.00,,SKC,0.00,VWS V14.01,2014-03-01 00:09:00,
2014-02-28 18:14:00,10.4,2.6,30.06,WNW,292,0.0,2.0,70,0.00,,SKC,0.00,VWS V14.01,2014-03-01 00:14:00,
2014-02-28 18:19:00,10.2,2.4,30.06,WNW,292,0.0,2.0,70,0.00,,SKC,0.00,VWS V14.01,2014-03-01 00:19:00,
2014-02-28 18:24:00,10.0,2.5,30.06,WNW,292,0.0,2.0,71,0.00,,SKC,0.00,VWS V14.01,2014-03-01 00:24:00,
2014-02-28 18:29:00,9.8,2.3,30.07,WNW,292,1.0,2.0,71,0.00,,SKC,0.00,VWS V14.01,2014-03-01 00:29:00,
2014-02-28 18:34:00,9.7,2.2,30.07,WNW,292,2.0,2.0,71,0.00,,SKC,0.00,VWS V14.01,2014-03-01 00:34:00,
2014-02-28 18:39:00,9.6,2.1,30.07,WNW,286,0.0,2.0,71,0.00,,SKC,0.00,VWS V14.01,2014-03-01 00:39:00,
2014-02-28 18:44:00,9.6,2.1,30.08,WSW,242,0.0,4.0,71,0.00,,SKC,0.00,VWS V14.01,2014-03-01 00:44:00,
2014-02-28 18:49:00,9.5,2.0,30.08,WSW,242,0.0,4.0,71,0.00,,SKC,0.00,VWS V14.01,2014-03-01 00:49:00,
2014-02-28 18:54:00,9.4,1.6,30.08,WSW,247,0.0,4.0,70,0.00,,SKC,0.00,VWS V14.01,2014-03-01 00:54:00,
2014-02-28 18:59:00,9.2,1.4,30.08,WSW,247,0.0,0.0,70,0.00,,SKC,0.00,VWS V14.01,2014-03-01 00:59:00,
2014-02-28 19:04:00,8.9,1.1,30.08,WSW,247,0.0,0.0,70,0.00,,SKC,0.00,VWS V14.01,2014-03-01 01:04:00,
2014-02-28 19:09:00,8.8,1.3,30.09,WSW,247,0.0,1.0,71,0.00,,SKC,0.00,VWS V14.01,2014-03-01 01:09:00,
2014-02-28 19:14:00,8.7,1.2,30.09,WSW,247,0.0,1.0,71,0.00,,SKC,0.00,VWS V14.01,2014-03-01 01:14:00,
2014-02-28 19:19:00,8.5,1.0,30.09,WSW,247,0.0,1.0,71,0.00,,SKC,0.00,VWS V14.01,2014-03-01 01:19:00,
2014-02-28 19:24:00,8.2,1.0,30.09,WSW,247,0.0,1.0,72,0.00,,SKC,0.00,VWS V14.01,2014-03-01 01:24:00,
2014-02-28 19:29:00,8.0,0.9,30.09,WSW,247,0.0,0.0,72,0.00,,SKC,0.00,VWS V14.01,2014-03-01 01:29:00,
2014-02-28 19:34:00,7.7,0.6,30.10,WSW,247,0.0,0.0,72,0.00,,SKC,0.00,VWS V14.01,2014-03-01 01:34:00,
2014-02-28 19:39:00,7.4,0.6,30.09,WSW,247,0.0,0.0,73,0.00,,SKC,0.00,VWS V14.01,2014-03-01 01:39:00,
2014-02-28 19:44:00,7.3,0.5,30.09,WSW,247,0.0,0.0,73,0.00,,SKC,0.00,VWS V14.01,2014-03-01 01:44:00,
2014-02-28 19:49:00,7.2,0.7,30.09,WSW,247,0.0,0.0,74,0.00,,SKC,0.00,VWS V14.01,2014-03-01 01:49:00,
2014-02-28 19:54:00,7.1,0.3,30.09,WSW,247,0.0,0.0,73,0.00,,SKC,0.00,VWS V14.01,2014-03-01 01:54:00,
2014-02-28 19:59:00,6.9,0.1,30.09,WSW,247,0.0,0.0,73,0.00,,SKC,0.00,VWS V14.01,2014-03-01 01:59:00,
2014-02-28 20:04:00,6.7,0.2,30.09,WSW,247,0.0,0.0,74,0.00,,SKC,0.00,VWS V14.01,2014-03-01 02:04:00,
2014-02-28 20:09:00,6.5,0.0,30.09,WSW,247,0.0,0.0,74,0.00,,SKC,0.00,VWS V14.01,2014-03-01 02:09:00,
2014-02-28 20:14:00,6.3,-0.2,30.10,WSW,247,0.0,0.0,74,0.00,,SKC,0.00,VWS V14.01,2014-03-01 02:14:00,
2014-02-28 20:19:00,6.2,0.0,30.09,WSW,247,0.0,0.0,75,0.00,,SKC,0.00,VWS V14.01,2014-03-01 02:19:00,
2014-02-28 20:24:00,6.0,0.1,30.09,WSW,247,0.0,0.0,76,0.00,,SKC,0.00,VWS V14.01,2014-03-01 02:24:00,
2014-02-28 20:29:00,5.9,0.0,30.09,WSW,247,0.0,0.0,76,0.00,,SKC,0.00,VWS V14.01,2014-03-01 02:29:00,
2014-02-28 20:34:00,5.7,-0.2,30.10,WSW,247,0.0,0.0,76,0.00,,SKC,0.00,VWS V14.01,2014-03-01 02:34:00,
2014-02-28 20:39:00,5.6,0.0,30.10,WSW,247,0.0,0.0,77,0.00,,SKC,0.00,VWS V14.01,2014-03-01 02:39:00,
2014-02-28 20:44:00,5.7,0.3,30.10,WSW,247,0.0,0.0,78,0.00,,SKC,0.00,VWS V14.01,2014-03-01 02:44:00,
2014-02-28 20:49:00,5.6,0.2,30.11,WSW,247,0.0,0.0,78,0.00,,SKC,0.00,VWS V14.01,2014-03-01 02:49:00,
2014-02-28 20:54:00,5.8,0.4,30.12,WSW,247,0.0,1.0,78,0.00,,SKC,0.00,VWS V14.01,2014-03-01 02:54:00,
2014-02-28 20:59:00,6.1,0.7,30.12,WSW,247,0.0,0.0,78,0.00,,SKC,0.00,VWS V14.01,2014-03-01 02:59:00,
2014-02-28 21:04:00,6.4,1.0,30.12,WSW,247,0.0,1.0,78,0.00,,SKC,0.00,VWS V14.01,2014-03-01 03:04:00,
2014-02-28 21:09:00,6.6,0.9,30.12,WSW,247,0.0,1.0,77,0.00,,SKC,0.00,VWS V14.01,2014-03-01 03:09:00,
2014-02-28 21:14:00,6.9,1.2,30.12,WSW,254,0.0,4.0,77,0.00,,SKC,0.00,VWS V14.01,2014-03-01 03:14:00,
2014-02-28 21:19:00,7.1,1.4,30.12,SW,236,0.0,4.0,77,0.00,,SKC,0.00,VWS V14.01,2014-03-01 03:19:00,
2014-02-28 21:24:00,7.3,1.6,30.13,WNW,288,1.0,4.0,77,0.00,,SKC,0.00,VWS V14.01,2014-03-01 03:24:00,
2014-02-28 21:29:00,7.6,1.6,30.13,West,271,0.0,0.0,76,0.00,,SKC,0.00,VWS V14.01,2014-03-01 03:29:00,
2014-02-28 21:34:00,7.9,1.9,30.14,NNW,329,7.0,7.0,76,0.00,,SKC,0.00,VWS V14.01,2014-03-01 03:34:00,
2014-02-28 21:39:00,8.2,1.9,30.14,WNW,290,2.0,7.0,75,0.00,,SKC,0.00,VWS V14.01,2014-03-01 03:39:00,
2014-02-28 21:44:00,8.4,2.1,30.14,NW,309,0.0,7.0,75,0.00,,SKC,0.00,VWS V14.01,2014-03-01 03:44:00,
2014-02-28 21:49:00,8.4,1.8,30.15,WNW,296,0.0,7.0,74,0.00,,SKC,0.00,VWS V14.01,2014-03-01 03:49:00,
2014-02-28 21:54:00,8.5,1.9,30.15,WNW,300,4.0,7.0,74,0.00,,SKC,0.00,VWS V14.01,2014-03-01 03:54:00,
2014-02-28 21:59:00,8.5,1.9,30.16,WNW,291,1.0,4.0,74,0.00,,SKC,0.00,VWS V14.01,2014-03-01 03:59:00,
2014-02-28 22:04:00,8.5,1.9,30.16,WNW,288,2.0,5.0,74,0.00,,SKC,0.00,VWS V14.01,2014-03-01 04:04:00,
2014-02-28 22:09:00,8.4,1.8,30.17,NNW,331,2.0,5.0,74,0.00,,SKC,0.00,VWS V14.01,2014-03-01 04:09:00,
2014-02-28 22:14:00,8.4,1.8,30.17,NW,307,1.0,6.0,74,0.00,,SKC,0.00,VWS V14.01,2014-03-01 04:14:00,
2014-02-28 22:19:00,8.4,1.5,30.17,WNW,295,1.0,10.0,73,0.00,,SKC,0.00,VWS V14.01,2014-03-01 04:19:00,
2014-02-28 22:24:00,8.3,1.5,30.18,West,259,6.0,12.0,73,0.00,,SKC,0.00,VWS V14.01,2014-03-01 04:24:00,
2014-02-28 22:29:00,8.3,1.5,30.19,West,275,0.0,4.0,73,0.00,,SKC,0.00,VWS V14.01,2014-03-01 04:29:00,
2014-02-28 22:34:00,8.2,1.4,30.19,NW,321,1.0,9.0,73,0.00,,SKC,0.00,VWS V14.01,2014-03-01 04:34:00,
2014-02-28 22:39:00,8.0,1.2,30.19,NW,310,6.0,9.0,73,0.00,,SKC,0.00,VWS V14.01,2014-03-01 04:39:00,
2014-02-28 22:44:00,7.8,0.4,30.19,WNW,303,5.0,9.0,71,0.00,,SKC,0.00,VWS V14.01,2014-03-01 04:44:00,
2014-02-28 22:49:00,7.7,0.3,30.21,WNW,300,5.0,9.0,71,0.00,,SKC,0.00,VWS V14.01,2014-03-01 04:49:00,
2014-02-28 22:54:00,7.6,0.2,30.21,NNW,329,1.0,9.0,71,0.00,,SKC,0.00,VWS V14.01,2014-03-01 04:54:00,
2014-02-28 22:59:00,7.4,0.0,30.21,WNW,296,5.0,5.0,71,0.00,,SKC,0.00,VWS V14.01,2014-03-01 04:59:00,
2014-02-28 23:01:00,7.3,-0.1,30.21,WNW,297,0.0,5.0,71,0.00,,SKC,0.00,VWS V14.01,2014-03-01 05:01:00,
2014-02-28 23:06:00,7.2,-0.2,30.21,NW,304,4.0,5.0,71,0.00,,SKC,0.00,VWS V14.01,2014-03-01 05:06:00,
2014-02-28 23:11:00,7.0,-1.0,30.22,WNW,293,5.0,7.0,69,0.00,,SKC,0.00,VWS V14.01,2014-03-01 05:11:00,
2014-02-28 23:16:00,6.7,-1.6,30.22,WNW,287,8.0,12.0,68,0.00,,SKC,0.00,VWS V14.01,2014-03-01 05:16:00,
2014-02-28 23:21:00,6.5,-1.8,30.22,NW,304,1.0,12.0,68,0.00,,SKC,0.00,VWS V14.01,2014-03-01 05:21:00,
2014-02-28 23:26:00,6.4,-2.2,30.23,NW,319,0.0,12.0,67,0.00,,SKC,0.00,VWS V14.01,2014-03-01 05:26:00,
2014-02-28 23:31:00,6.2,-2.1,30.23,NW,308,1.0,5.0,68,0.00,,SKC,0.00,VWS V14.01,2014-03-01 05:31:00,
2014-02-28 23:36:00,6.1,-2.2,30.23,West,280,6.0,11.0,68,0.00,,SKC,0.00,VWS V14.01,2014-03-01 05:36:00,
2014-02-28 23:41:00,5.9,-2.7,30.24,NNW,340,4.0,11.0,67,0.00,,SKC,0.00,VWS V14.01,2014-03-01 05:41:00,
2014-02-28 23:46:00,5.8,-2.8,30.24,WNW,300,7.0,11.0,67,0.00,,SKC,0.00,VWS V14.01,2014-03-01 05:46:00,
2014-02-28 23:51:00,5.5,-3.1,30.24,NNW,332,1.0,11.0,67,0.00,,SKC,0.00,VWS V14.01,2014-03-01 05:51:00,
2014-02-28 23:56:00,5.4,-3.2,30.24,NW,318,4.0,11.0,67,0.00,,SKC,0.00,VWS V14.01,2014-03-01 05:56:00,